Miscellaneous Local Product
Issued by NWS North Platte, NE

Home | Current Version | Previous Version | Graphics & Text | Print | Product List | Glossary On
Versions: 1 2 3 4 5 6 7 8 9 10 11 12 13 14 15 16 17 18 19 20 21 22 23 24 25 26 27 28 29 30 31 32 33 34 35 36 37 38 39 40 41 42 43 44 45 46 47 48 49 50
000
AXUS43 KLBF 241910
MISLBF


WESTERN AND NORTH CENTRAL NEBRASKA HOURLY WEATHER ROUNDUP
NATIONAL WEATHER SERVICE NORTH PLATTE NE
200 PM CDT FRI APR 24 2015

***STATIONS NOT REPORTING VARIABLES SUCH AS SKY/WEATHER OR
PRESSURE ARE PROVIDED BY THE NEBRASKA DEPARTMENT OF
ROADS...RAWS...AND APRS NETWORKS...AND ARE NOT UNDER
NATIONAL WEATHER SERVICE QUALITY CONTROL***

...OBSERVATIONS IN AND NEAR THE EASTERN PANHANDLE OF NEBRASKA...

CITY           SKY/WX    TMP DP  RH WIND       PRES   REMARKS
PINE RIDGE     SUNNY     69  42  37 CALM      29.58F
CHADRON        MOSUNNY   68  44  42 W9        29.58F
ALLIANCE       MOSUNNY   67  40  37 NW14G21   29.59F
SIDNEY         MOSUNNY   68  39  34 NW13G18   29.62F
WHITECLAY        N/A     67  42  41 W8          N/A
CRESCENT LAKE    N/A     69  37  31 W10G17      N/A
BIG SPRINGS      N/A     70  42  35 W10         N/A
$$

...OBSERVATIONS IN NORTH CENTRAL NEBRASKA...

CITY           SKY/WX    TMP DP  RH WIND       PRES   REMARKS
VALENTINE      MOSUNNY   73  39  29 W12       29.54F
THEDFORD       SUNNY     74  43  33 S5        29.57F
AINSWORTH      SUNNY     75  38  26 SW10      29.55F
O`NEILL        SUNNY     75  52  43 S12       29.56F
ORD            MOSUNNY   68  54  60 S10G18    29.58F
BROKEN BOW     MOSUNNY   68  54  60 S13       29.59F
BROWNLEE         N/A     76  33  20 SW10        N/A
VALENTINE NWR    N/A     73  36  26 W10         N/A
SPRINGVIEW       N/A     76  44  31 W3          N/A
HALSEY           N/A     74  44  34 S6          N/A
BREWSTER         N/A     76  49  37 S5          N/A
NEWPORT          N/A     78  42  27 W12         N/A
SARGENT          N/A     67  55  66 SW7G15      N/A
COMSTOCK         N/A     72  58  61 S8          N/A
EWING            N/A     74  56  52 S12G21      N/A
$$

...OBSERVATIONS IN SOUTHWEST NEBRASKA AND FAR NORTHEAST COLORADO...

CITY           SKY/WX    TMP DP  RH WIND       PRES   REMARKS
WRAY           MOCLDY    73  43  34 NE10G20   29.60F
HOLYOKE        FAIR      68  36  30 NW7       29.62S
IMPERIAL       PTSUNNY   66  50  56 VRB6      29.61F
OGALLALA       SUNNY     66  54  63 SE8       29.59F
MCCOOK         CLOUDY    66  53  63 E5        29.59F
LEXINGTON      CLOUDY    65  55  69 S7        29.60F
PAXTON           N/A     63  56  79 CALM        N/A
SUTHERLAND       N/A     65  54  66 S3          N/A
BRADY            N/A     64  54  71 CALM        N/A
GOTHENBURG       N/A     64  51  63 CALM        N/A
CALLAWAY         N/A     65  56  73 SW3         N/A
$$

...NORTH PLATTE AREA...

CITY           SKY/WX    TMP DP  RH WIND       PRES   REMARKS
DOWNTOWN         N/A     70  53  54 SW3         N/A
$$

...SOME WEATHER OBSERVATIONS FROM AROUND THE REGION...

CITY           SKY/WX    TMP DP  RH WIND       PRES   REMARKS
DENVER         MOSUNNY   65  28  24 E10       29.66F
LARAMIE        PTSUNNY   48  30  49 W25G36    29.73R
CHEYENNE       PTSUNNY   59  26  28 NW16G23   29.67F
SCOTTSBLUFF    SUNNY     69  37  30 NW8G21    29.60F
RAPID CITY     PTSUNNY   68  41  37 NE8G17    29.59F
PIERRE         MOSUNNY   71  46  40 N10G16    29.52F
WINNER         FAIR      76  43  30 SW7       29.52F
SIOUX FALLS    CLOUDY    65  50  58 SE14      29.61F
OMAHA          PTSUNNY   66  52  60 S10       29.66F
GRAND ISLAND   CLOUDY    63  55  75 S8        29.63F
KANSAS CITY    CLOUDY    58  51  78 S10G21    29.73F
WICHITA        CLOUDY    71  61  70 S23G31    29.60F
HAYS           CLOUDY    72  55  56 S15       29.56F
LIBERAL        SUNNY     81  43  26 SW22G28   29.58F
GOODLAND       MOSUNNY   69  50  50 VRB5      29.59F
$$



USA.gov is the U.S. government's official web portal to all federal, state and local government web resources and services.